User: anonymous   Login
Location: Poughquag
(41.6090°N, 73.6820°W)
Time: 05:44:23
(UTC-04:00)
Language:

Vanguard 2 Rocket - Orbit

View from above orbital plane
View from above orbital plane
View from above satellite
View from above satellite

Ground track
Ground track

The orbit data is extracted from the following two-line orbital elements,

1    12U 59001B   20224.81798450 +.00000164 +00000-0 +98485-4 0  9999
2    12 032.8980 157.2696 1664003 007.0031 355.1031 11.44299528286326
Epoch (UTC): 11 August 2020 19:37:53
Eccentricity: 0.1664003
inclination: 32.8980°
perigee height: 556 km
apogee height: 3324 km
right ascension of ascending node: 157.2696°
argument of perigee: 7.0031°
revolutions per day: 11.44299528
mean anomaly at epoch: 355.1031°
orbit number at epoch: 28632

The dashed part of the orbit path shows where the satellite is in the earth's shadow,  

DLR